Starlink 32005

operational
NORAD ID: 60034 Int'l Des: 2024-111 Owner: SPXS Country: US Constellation: starlink
LEOCIRCULAR

关于 Starlink 32005

正在加载描述...

实时位置

正在加载3D地球...

即将过境

高度历史

Altitude vs Time

uPlot chart will show altitude changes over time

两行轨道根数

1 60034U 24111U 25306.32058140 .00002116 00000-0 83584-4 0 9993
2 60034 53.1606 307.1765 0001403 90.0810 270.0351 15.30186485 79433
Epoch: Nov 2, 2025 • Age: 19 hours

当前状态

高度 491.0 km
速度 7.62 km/s
星下点 -44.29°S, 179.25°W
发射日期 Jun 8, 2024
运行时间 1.4 years
类型 internet

技术详情

分类 Payload
质量 730.00 kg
干质量 700.00 kg
总质量 730.00 kg
长度 0.30 m
直径 4.10 m
跨度 29.00 m
形状 Box + pan
制造商 SPXS
平台类型 Starlink V2M
阶段状态 In Orbit
所有者/国家 SPXS/US

大型星座

Loading constellations...